GW5689 Weather Reports


time (UTC)temp
F
wind
direction
speed
knots
gust
knots
rain 1hr
in
rain 24hr
in
rain mn
in
humidity
%
barometer
mb
20260503192518 62 138 1.7 2.6 0.00 0.00 0.00 29 1015.5
20260503192014 62 3 1.7 5.2 0.00 0.00 0.00 29 1015.6
20260503191511 62 23 0.9 6.1 0.00 0.00 0.00 32 1015.4
20260503191008 63 350 1.7 2.6 0.00 0.00 0.00 28 1015.6
20260503190505 62 36 0.9 7.0 0.00 0.00 0.00 29 1015.7
20260503190002 61 74 0.9 5.2 0.00 0.00 0.00 30 1015.8
20260503185458 60 147 2.6 5.2 0.00 0.00 0.00 29 1015.8
20260503184957 61 312 1.7 7.8 0.00 0.00 0.00 31 1016.0
20260503184454 61 133 0.9 6.1 0.00 0.00 0.00 28 1016.0
20260503183950 61 30 1.7 6.1 0.00 0.00 0.00 30 1016.1
20260503183447 60 54 0.0 2.6 0.00 0.00 0.00 28 1016.1
20260503182944 61 51 0.0 1.7 0.00 0.00 0.00 31 1016.3
20260503182443 61 29 0.9 6.1 0.00 0.00 0.00 29 1016.1
20260503181940 62 33 1.7 3.5 0.00 0.00 0.00 29 1016.2
20260503181437 62 12 3.5 5.2 0.00 0.00 0.00 28 1016.2
20260503180933 61 192 3.5 6.1 0.00 0.00 0.00 29 1016.1
20260503180432 59 36 0.0 0.9 0.00 0.00 0.00 33 1016.1
20260503175928 59 18 0.9 2.6 0.00 0.00 0.00 34 1016.5
20260503175426 59 127 2.6 5.2 0.00 0.00 0.00 31 1016.1
20260503174921 60 67 0.9 3.5 0.00 0.00 0.00 31 1016.2
20260503174420 59 39 1.7 5.2 0.00 0.00 0.00 32 1016.2
20260503173920 59 355 5.2 6.1 0.00 0.00 0.00 30 1016.3
20260503173416 60 119 0.0 2.6 0.00 0.00 0.00 32 1016.3
20260503172913 60 154 1.7 1.7 0.00 0.00 0.00 33 1016.3
20260503172411 58 144 1.7 6.1 0.00 0.00 0.00 34 1016.1
20260503171907 60 108 0.9 2.6 0.00 0.00 0.00 30 1016.6
20260503171404 60 108 1.7 5.2 0.00 0.00 0.00 34 1016.6
20260503170901 59 84 0.9 3.5 0.00 0.00 0.00 34 1016.5
20260503170357 59 158 2.6 2.6 0.00 0.00 0.00 33 1016.6
20260503150749 53 36 1.7 3.5 0.00 0.00 0.00 42 1017.7
20260503150245 53 43 2.6 2.6 0.00 0.00 0.00 39 1017.6
20260503140210 50 49 4.3 5.2 0.00 0.00 0.00 43 1017.3
20260503131140 46 43 1.7 6.1 0.00 0.00 0.00 52 1017.5
20260503130637 46 213 1.7 2.6 0.00 0.00 0.00 50 1017.5
20260503130135 47 15 2.6 5.2 0.00 0.00 0.00 51 1017.3
20260503110527 34 51 0.0 0.0 0.00 0.00 0.00 89 1016.7
20260503090414 40 54 0.0 0.0 0.00 0.00 0.00 76 1015.2
20260503081340 40 50 0.0 0.0 0.00 0.00 0.00 77 1015.0
20260503080837 39 53 0.0 0.0 0.00 0.00 0.00 79 1015.0
20260503080334 39 50 0.0 0.0 0.00 0.00 0.00 79 1014.9
20260503072811 40 46 0.0 0.9 0.00 0.00 0.00 76 1014.8
20260503072308 40 55 0.0 0.0 0.00 0.00 0.00 77 1014.7
20260503071804 39 79 0.9 0.9 0.00 0.00 0.00 75 1014.7
20260503071301 39 52 0.0 0.0 0.00 0.00 0.00 79 1014.4
20260503070757 39 53 0.0 0.0 0.00 0.00 0.00 79 1014.6
20260503070255 39 50 0.0 0.0 0.00 0.00 0.00 78 1014.7
20260503060220 43 64 0.0 1.7 0.00 0.00 0.00 68 1014.3
20260503054707 44 197 0.9 3.5 0.00 0.00 0.00 68 1014.3
20260503054205 44 61 0.0 1.7 0.00 0.00 0.00 68 1014.5
20260503053702 44 71 0.9 3.5 0.00 0.00 0.00 67 1014.4
20260503053201 43 128 1.7 2.6 0.00 0.00 0.00 67 1014.4
20260503052657 44 111 0.9 1.7 0.00 0.00 0.00 70 1014.4
20260503052153 44 51 0.0 0.0 0.00 0.00 0.00 69 1014.3
20260503051648 44 57 0.9 1.7 0.00 0.00 0.00 68 1014.4
20260503051146 44 58 0.9 1.7 0.00 0.00 0.00 66 1014.1
20260503050643 44 103 0.9 1.7 0.00 0.00 0.00 69 1014.1
20260503050140 44 55 0.0 0.9 0.00 0.00 0.00 70 1014.4
20260503045637 44 90 0.9 0.9 0.00 0.00 0.00 69 1014.4
20260503045134 44 68 0.0 1.7 0.00 0.00 0.00 70 1014.4
20260503044631 44 91 1.7 1.7 0.00 0.00 0.00 69 1014.5
20260503044129 43 97 1.7 1.7 0.00 0.00 0.00 69 1014.4
20260503043625 43 63 0.9 1.7 0.00 0.00 0.00 72 1014.4
20260503043122 44 78 0.9 1.7 0.00 0.00 0.00 69 1014.3
20260503042618 44 66 0.0 0.9 0.00 0.00 0.00 70 1014.5
20260503042114 43 58 0.0 0.9 0.00 0.00 0.00 70 1014.6
20260503041611 44 65 0.0 1.7 0.00 0.00 0.00 69 1014.5
20260503041109 44 305 1.7 1.7 0.00 0.00 0.00 67 1014.5
20260503040606 44 55 0.9 0.9 0.00 0.00 0.00 67 1014.3
20260503040103 44 104 0.9 1.7 0.00 0.00 0.00 67 1014.4
20260503035600 44 334 0.9 1.7 0.00 0.00 0.00 68 1014.3
20260503035058 45 205 1.7 2.6 0.00 0.00 0.00 66 1014.3
20260503034555 45 330 1.7 2.6 0.00 0.00 0.00 65 1014.1
20260503034052 45 102 0.9 2.6 0.00 0.00 0.00 65 1014.2
20260503033549 45 139 1.7 2.6 0.00 0.00 0.00 64 1014.1
20260503033047 45 246 3.5 5.2 0.00 0.00 0.00 63 1014.2
20260503032545 46 228 5.2 7.0 0.00 0.00 0.00 62 1014.1
20260503032043 46 327 2.6 5.2 0.00 0.00 0.00 62 1014.1
20260503031540 46 209 1.7 6.1 0.00 0.00 0.00 62 1014.1
20260503031037 46 204 3.5 6.1 0.00 0.00 0.00 61 1014.1
20260503030533 46 258 1.7 7.0 0.00 0.00 0.00 61 1014.1
20260503030031 46 199 4.3 7.0 0.00 0.00 0.00 60 1014.2
20260503025527 46 221 1.7 1.7 0.00 0.00 0.00 59 1014.0
20260503025025 46 50 0.0 3.5 0.00 0.00 0.00 58 1014.0
20260503024521 46 75 1.7 1.7 0.00 0.00 0.00 58 1014.1
20260503024018 47 53 0.0 3.5 0.00 0.00 0.00 56 1014.2
20260503023515 47 59 0.0 1.7 0.00 0.00 0.00 56 1014.2
20260503023012 47 95 0.0 0.9 0.00 0.00 0.00 57 1014.4
20260503022508 48 47 0.0 1.7 0.00 0.00 0.00 53 1014.1
20260503022003 48 317 0.9 2.6 0.00 0.00 0.00 52 1014.1
20260503021500 49 52 2.6 3.5 0.00 0.00 0.00 49 1014.2
20260503020957 49 111 1.7 1.7 0.00 0.00 0.00 51 1014.1
20260503020454 49 51 0.0 1.7 0.00 0.00 0.00 50 1014.0
20260503015951 49 33 0.0 0.9 0.00 0.00 0.00 49 1014.0
20260503015448 50 53 0.0 2.6 0.00 0.00 0.00 51 1014.0
20260503014944 50 129 1.7 1.7 0.00 0.00 0.00 48 1013.6
20260503014441 50 51 0.0 0.9 0.00 0.00 0.00 49 1013.8
20260503013939 50 65 0.9 1.7 0.00 0.00 0.00 46 1013.9
20260503013436 50 83 0.9 0.9 0.00 0.00 0.00 47 1013.7
20260503012933 50 104 1.7 1.7 0.00 0.00 0.00 47 1013.7
20260503012431 50 56 0.0 1.7 0.00 0.00 0.00 45 1013.8
20260503011926 50 77 0.9 0.9 0.00 0.00 0.00 48 1013.6
20260503011424 51 41 0.0 0.9 0.00 0.00 0.00 47 1013.6
20260503010921 51 178 1.7 1.7 0.00 0.00 0.00 47 1013.4
20260503010418 51 101 0.9 1.7 0.00 0.00 0.00 46 1013.4
20260503005915 51 47 0.0 1.7 0.00 0.00 0.00 44 1013.4
20260503005412 51 100 1.7 1.7 0.00 0.00 0.00 44 1013.2
20260503004908 51 78 0.0 1.7 0.00 0.00 0.00 43 1013.2
20260503004405 51 340 1.7 5.2 0.00 0.00 0.00 42 1013.0
20260503003903 51 51 0.9 3.5 0.00 0.00 0.00 43 1013.0
20260503003359 51 81 0.0 2.6 0.00 0.00 0.00 45 1012.7
20260503002857 51 102 0.0 2.6 0.00 0.00 0.00 43 1012.8
20260503002354 52 77 0.9 0.9 0.00 0.00 0.00 45 1012.7
20260503001850 51 72 0.9 2.6 0.00 0.00 0.00 43 1012.7
20260503001346 52 68 0.9 0.9 0.00 0.00 0.00 42 1012.6
20260503000844 52 136 0.0 0.9 0.00 0.00 0.00 43 1012.6
20260503000341 52 74 0.0 1.7 0.00 0.00 0.00 42 1012.6
20260502235838 52 106 0.9 1.7 0.00 0.00 0.00 42 1012.4
20260502235335 52 27 1.7 2.6 0.00 0.00 0.00 44 1012.4
20260502234832 52 40 0.9 5.2 0.00 0.00 0.00 42 1012.4
20260502234329 53 44 0.9 1.7 0.00 0.00 0.00 42 1012.3
20260502233826 53 81 1.7 1.7 0.00 0.00 0.00 40 1012.2
20260502233322 53 76 0.9 2.6 0.00 0.00 0.00 42 1011.9
20260502232819 53 149 1.7 3.5 0.00 0.00 0.00 39 1012.2
20260502232315 54 50 1.7 3.5 0.00 0.00 0.00 38 1012.4
20260502231812 54 54 0.0 3.5 0.00 0.00 0.00 38 1012.1
20260502231310 54 72 1.7 2.6 0.00 0.00 0.00 39 1012.1
20260502230808 54 46 0.0 1.7 0.00 0.00 0.00 37 1012.2
20260502230306 54 47 2.6 3.5 0.00 0.00 0.00 38 1012.2
20260502225802 55 202 3.5 6.1 0.00 0.00 0.00 37 1012.4
20260502225259 55 171 2.6 7.0 0.00 0.00 0.00 37 1012.0
20260502224755 55 256 0.9 3.5 0.00 0.00 0.00 38 1012.1
20260502224252 55 25 1.7 7.0 0.00 0.00 0.00 38 1012.1
20260502223749 56 24 3.5 7.0 0.00 0.00 0.00 38 1012.0
20260502223248 56 14 1.7 1.7 0.00 0.00 0.00 39 1011.9
20260502222745 56 153 0.9 1.7 0.00 0.00 0.00 39 1011.8
20260502222242 57 51 0.0 6.1 0.00 0.00 0.00 36 1012.1
20260502221737 57 12 0.9 2.6 0.00 0.00 0.00 36 1011.9
20260502221234 57 5 0.9 1.7 0.00 0.00 0.00 37 1012.2
20260502220731 57 60 1.7 5.2 0.00 0.00 0.00 37 1012.0
20260502220227 58 225 3.5 5.2 0.00 0.00 0.00 36 1012.0
20260502215724 59 153 1.7 2.6 0.00 0.00 0.00 35 1011.9
20260502215221 59 20 3.5 6.1 0.00 0.00 0.00 34 1011.9
20260502214718 57 221 3.5 3.5 0.00 0.00 0.00 36 1011.8
20260502214215 57 213 3.5 5.2 0.00 0.00 0.00 36 1011.8
20260502213712 57 206 1.7 3.5 0.00 0.00 0.00 37 1011.7
20260502213210 58 59 0.0 5.2 0.00 0.00 0.00 36 1011.6
20260502212708 58 26 0.9 9.6 0.00 0.00 0.00 36 1011.8
20260502212206 59 301 2.6 3.5 0.00 0.00 0.00 36 1011.6
20260502211702 57 103 1.7 6.1 0.00 0.00 0.00 36 1011.6
20260502211159 57 205 1.7 7.0 0.00 0.00 0.00 38 1011.6
20260502210656 58 225 4.3 5.2 0.00 0.00 0.00 37 1011.6
20260502210153 58 229 3.5 6.1 0.00 0.00 0.00 36 1011.7
20260502205650 58 115 0.9 1.7 0.00 0.00 0.00 35 1011.9
20260502205146 59 87 1.7 1.7 0.00 0.00 0.00 38 1011.8
20260502204643 58 213 3.5 5.2 0.00 0.00 0.00 39 1011.7
20260502204141 57 0 1.7 6.1 0.00 0.00 0.00 39 1012.0
20260502203638 59 236 8.7 11.3 0.00 0.00 0.00 36 1011.7
20260502203136 59 45 0.9 9.6 0.00 0.00 0.00 38 1011.8
20260502202630 59 133 0.0 3.5 0.00 0.00 0.00 38 1011.6
20260502202129 59 165 3.5 7.0 0.00 0.00 0.00 36 1011.7
20260502201625 58 230 0.9 5.2 0.00 0.00 0.00 38 1011.8
20260502201122 59 203 2.6 7.0 0.00 0.00 0.00 36 1011.7
20260502200617 59 296 2.6 5.2 0.00 0.00 0.00 37 1011.8
20260502200115 60 155 3.5 7.0 0.00 0.00 0.00 37 1011.7
20260502195613 59 348 3.5 6.1 0.00 0.00 0.00 36 1011.8
20260502195108 59 83 0.9 5.2 0.00 0.00 0.00 38 1011.9
20260502194606 61 144 1.7 3.5 0.00 0.00 0.00 36 1011.9
20260502194102 59 116 0.9 3.5 0.00 0.00 0.00 37 1011.9
20260502193559 58 324 0.9 3.5 0.00 0.00 0.00 40 1011.9
20260502193056 57 110 2.6 5.2 0.00 0.00 0.00 38 1012.0